Lid_Strength_Index
1 1 1 1 1 0 0 0 0 -0 -0 -0 -0 -0 -0 -0 -0 -0 -0 -0 0 0 -0 0 0 -1 0 -0 -0 -0 0 0 2 1 -0 -1 -1 -1 -2 -2 -2 -3 -2
1 1 1 1 1 1 1 0 0 0 -0 -0 -0 0 0 0 -0 0 0 0 0 1 1 0 0 0 0 -1 0 -0 -0 -1 1 1 0 0 -0 -1 -1 -1 -1 -1 -2
1 1 1 1 1 1 1 1 0 0 0 0 0 0 0 0 0 0 0 0 0 0 0 1 0 0 1 0 0 0 0 0 0 1 1 0 -0 -0 -0 -1 -1 -2 -1
1 1 1 1 1 1 1 1 0 0 0 0 0 0 0 0 0 0 0 0 0 0 0 0 0 0 1 0 0 0 -0 1 1 1 1 1 1 -0 -0 1 1 0 0
1 1 1 1 1 1 1 1 0 0 0 0 0 0 0 0 0 0 0 0 1 1 0 0 0 0 1 1 1 0 0 1 1 2 2 1 1 1 2 1 2 1 1
1 2 1 1 1 1 1 1 1 1 1 1 1 1 1 1 3 4 1 1 1 1 1 1 -0 1 1 3 2 1 0 1 1 2 2 2 1 0 0 1 1 2 3
1 1 1 1 1 1 1 1 1 1 1 1 1 1 1 1 5 5 4 0 1 1 1 1 1 0 1 0 3 2 3 2 1 0 1 1 0 -0 -0 0 1 1 2
2 2 1 1 2 1 1 1 1 1 1 1 1 1 1 1 5 7 5 0 1 1 0 1 1 1 0 0 0 1 0 0 0 0 0 0 -0 -1 -1 -0 -0 0 0
2 2 1 1 2 2 2 2 1 1 1 1 1 1 1 1 7 8 6 1 1 1 1 0 0 1 3 4 1 1 1 1 3 4 3 3 3 2 0 -0 1 2 2
2 2 1 1 1 2 2 2 1 1 1 1 1 1 2 1 6 9 7 1 1 1 1 0 4 1 7 7 1 1 2 2 1 1 2 2 2 1 3 -1 0 2 2
1 1 1 1 1 1 1 1 1 1 1 1 1 1 1 1 1 10 10 1 1 2 2 1 1 6 10 9 5 1 2 1 2 1 1 1 0 -0 -0 -0 -1 0 2
1 1 1 1 1 1 1 1 1 2 2 2 2 2 1 1 5 8 11 8 3 1 2 1 1 9 11 11 7 5 8 4 1 1 2 2 1 1 0 -0 -1 -2 -2
1 1 1 1 1 1 2 2 2 2 2 2 3 3 2 1 1 9 12 11 8 2 1 2 5 11 11 10 9 9 7 1 1 2 2 2 1 0 -0 -0 -1 -2 -2
1 1 1 2 2 1 1 1 2 2 2 2 3 3 2 2 1 1 3 7 9 6 3 1 6 6 6 4 7 6 1 1 1 2 2 1 0 1 2 1 1 1 1
2 2 2 2 2 2 2 1 2 1 2 2 2 2 2 2 2 4 3 1 2 4 4 3 4 4 5 5 4 3 2 1 2 1 1 2 1 3 2 1 1 2 2
2 2 2 2 2 2 2 2 7 8 10 13 15 8 2 7 12 14 15 13 12 12 4 5 5 5 5 5 5 4 2 2 2 1 2 2 2 2 1 1 1 2 2
2 2 1 2 2 1 2 2 2 4 12 12 14 16 16 17 16 15 17 15 14 12 4 4 4 4 4 5 4 3 3 2 1 1 2 1 2 1 2 1 1 2 2
1 6 1 1 1 2 2 2 1 2 3 2 7 9 13 15 16 16 16 15 9 8 3 4 4 4 5 5 4 3 3 2 2 1 1 1 1 1 2 2 2 2 1
2 2 1 1 1 2 1 1 1 1 2 2 2 4 5 11 12 13 14 4 3 6 3 3 4 4 4 4 4 3 3 2 2 2 1 1 1 1 2 2 2 4 2
2 3 3 1 2 1 1 2 1 2 2 2 2 2 1 2 2 2 3 5 6 4 3 3 2 3 3 4 4 2 2 2 2 2 1 1 1 1 2 2 1 2 2
2 2 3 1 2 2 2 2 2 2 2 2 2 2 10 2 2 2 2 2 2 2 2 2 3 2 2 3 2 2 2 2 1 1 1 1 1 2 1 1 2 2 2
1 2 2 2 2 2 2 2 2 2 2 2 2 2 9 2 2 2 2 1 1 1 1 1 2 2 1 1 1 2 2 2 1 1 1 1 2 2 3 3 2 2 2
1 2 2 2 2 3 2 2 2 2 2 2 2 2 2 2 2 2 1 1 1 1 0 1 1 1 1 1 0 1 1 1 1 1 1 2 2 3 3 3 2 2 3
1 2 2 2 2 2 2 2 2 5 3 3 3 3 3 2 2 2 1 1 1 1 1 1 1 1 1 1 1 0 0 1 1 1 1 2 2 4 3 2 2 2 2
2 2 2 2 3 3 3 3 3 4 4 5 6 6 6 4 3 2 2 2 2 2 1 0 0 1 1 0 0 0 4 10 2 5 1 2 2 2 3 2 2 2 2
3 3 3 3 3 3 4 4 4 5 5 6 6 7 7 7 6 4 4 4 2 2 2 1 1 1 1 1 2 10 16 13 7 10 2 2 3 3 3 3 3 3 3